[[{"header":{"parameterUnit":"m.s-1","parameterCategory":1,"la1":30.2991,"la2":30.254,"lo1":-89.0895,"lo2":-89.0444,"dy":0.0017,"dx":0.0017,"nx":28,"ny":28,"refTime":"2025-03-30T03:00:00:Z","depth":0,"parameterNumber":2,"parameterNumberName":"U-component_of_WINDS"},"data":[0,0,0,0,0,0,0,0,0,0,0,0,0,0,0,0,0,0,0,0,0,0,0,0,0,0,0,0,0,0,0,0,0,0,0,0,0,0,0,0,0,0,0,0,0,0,0,0,0,0,0,0,0,0,0,0,0,0,-1.8779,-1.878,0,-1.8887,-1.8888,-1.889,-1.893,-1.8929,-1.8929,-1.8929,-1.9038,-1.9041,-1.9045,0,0,0,0,0,0,0,0,0,0,0,0,0,-1.8606,-1.8609,-1.8779,-1.878,-1.8782,-1.8887,-1.8888,-1.889,-1.893,-1.8929,-1.8929,-1.8929,-1.9037,-1.9041,-1.9045,0,0,0,0,0,0,0,0,0,0,0,0,0,-1.8694,-1.861,-1.8779,-1.8814,-1.8819,-1.8887,-1.8889,-1.889,-1.893,-1.8929,-1.8929,-1.8928,-1.9036,-1.9041,-1.9045,-1.9086,0,0,-1.906,-1.9062,0,0,0,0,0,0,0,0,-1.8689,-1.8701,-1.8808,-1.8812,-1.8817,-1.8895,-1.8868,-1.8956,-1.893,-1.8888,-1.8929,-1.8928,-1.8991,-1.8999,-1.9021,-1.9091,-1.9095,-1.9061,-1.9064,-1.9066,-1.9067,0,0,0,0,0,0,0,-1.8683,-1.8696,-1.8822,-1.8809,-1.8815,-1.8825,-1.8837,-1.8885,-1.8941,-1.8891,-1.8895,-1.8907,-1.8993,-1.9016,-1.9024,-1.9097,-1.9061,-1.9065,-1.9068,-1.907,-1.9205,-1.9206,0,0,0,0,0,0,-1.8671,-1.8691,-1.8818,-1.8825,-1.8751,-1.8828,-1.8841,-1.887,-1.894,-1.8951,-1.8907,-1.8908,-1.9008,-1.9018,-1.9028,-1.9079,-1.9066,-1.907,-1.9073,-1.9205,-1.9206,-1.9206,0,0,0,0,0,0,-1.8667,-1.8682,-1.8814,-1.8759,-1.8776,-1.8832,-1.8863,-1.8873,-1.8895,-1.8952,-1.8962,-1.892,-1.9008,-1.9021,-1.9071,-1.9083,-1.9072,-1.9077,-1.9204,-1.9205,-1.9206,-1.9182,0,0,0,0,0,0,-1.8662,-1.8681,-1.8697,-1.8759,-1.8779,-1.8856,-1.8864,-1.8875,-1.8904,-1.8906,-1.8967,-1.8977,-1.9008,-1.9063,-1.9076,-1.909,-1.9081,-1.9203,-1.9204,-1.9206,-1.9182,-1.9182,-1.9182,0,0,0,0,0,-1.8656,-1.8685,-1.8697,-1.8712,-1.8801,-1.8856,-1.8868,-1.8904,-1.8905,-1.8921,-1.8958,-1.8975,-1.908,-1.9068,-1.9082,-1.9098,-1.9202,-1.9204,-1.9205,-1.9182,-1.9182,-1.9182,0,0,0,0,0,0,-1.8623,-1.8694,-1.8708,-1.8759,-1.8801,-1.8863,-1.8885,-1.8903,-1.8946,-1.8947,-1.899,-1.9003,-1.905,-1.9079,-1.9065,-1.9141,-1.9142,-1.9147,-1.912,-1.912,-1.912,-1.9112,-1.9085,0,0,0,0,0,-1.8621,-1.8661,-1.8722,-1.876,-1.8781,-1.8829,-1.8855,-1.8879,-1.8925,-1.8943,-1.8983,-1.9026,-1.9069,-1.9096,-1.9139,-1.9187,-1.92,-1.9204,-1.9205,-1.9204,-1.9207,-1.9235,-1.9237,-1.9211,-1.9211,-1.9211,0,0,-1.8619,-1.8663,-1.8685,-1.8755,-1.8791,-1.883,-1.8844,-1.8886,-1.8916,-1.8949,-1.8999,-1.903,-1.9081,-1.913,-1.9154,-1.9156,-1.9218,-1.9206,-1.9206,-1.9209,-1.9236,-1.9239,-1.9241,-1.9212,-1.9212,-1.9212,0,0,-1.8635,-1.8672,-1.8709,-1.8744,-1.8798,-1.883,-1.8839,-1.8898,-1.892,-1.8971,-1.8997,-1.9033,-1.9106,-1.9141,-1.9168,-1.9198,-1.9215,-1.921,-1.9211,-1.9237,-1.9239,-1.9241,-1.9251,-1.9254,-1.9213,-1.9213,-1.9213,0,-1.8625,-1.8686,-1.8725,-1.8765,-1.8795,-1.8827,-1.8864,-1.8897,-1.8962,-1.8981,-1.8983,-1.9075,-1.9112,-1.9169,-1.9177,-1.9198,-1.9209,-1.9203,-1.9235,-1.9238,-1.924,-1.925,-1.9254,-1.9212,-1.9212,-1.9213,-1.9213,0,-1.8671,-1.8713,-1.8736,-1.8798,-1.883,-1.8868,-1.8912,-1.894,-1.8962,-1.8993,-1.9045,-1.909,-1.9142,-1.9158,-1.9179,-1.9218,-1.9218,-1.9227,-1.923,-1.9241,-1.9251,-1.9255,-1.9211,-1.9211,-1.9212,-1.9212,0,0,-1.8668,-1.8751,-1.8759,-1.8788,-1.885,-1.8883,-1.8922,-1.8974,-1.8997,-1.9041,-1.9075,-1.9136,-1.9145,-1.9176,-1.9201,-1.9224,-1.9244,-1.9231,-1.9232,-1.9231,-1.9289,-1.9281,-1.9285,-1.9256,-1.9257,-1.9257,-1.9285,0,-1.8691,-1.8764,-1.88,-1.8857,-1.8896,-1.8928,-1.8962,-1.9004,-1.9034,-1.9072,-1.9106,-1.9148,-1.9157,-1.9176,-1.92,-1.9236,-1.9256,-1.9235,-1.9287,-1.9289,-1.9273,-1.9291,-1.9283,-1.9306,-1.9289,-1.929,-1.929,0,-1.8728,-1.8772,-1.8833,-1.889,-1.8908,-1.8938,-1.8988,-1.9024,-1.9072,-1.9092,-1.9127,-1.9152,-1.9195,-1.9195,-1.9254,-1.9238,-1.9262,-1.9283,-1.9285,-1.9291,-1.9289,-1.9296,-1.9315,-1.9318,-1.9297,-1.9296,-1.9296,0,-1.872,-1.8794,-1.884,-1.8863,-1.8931,-1.8952,-1.8981,-1.9029,-1.9057,-1.9101,-1.912,-1.9167,-1.9193,-1.923,-1.9267,-1.9264,-1.9322,-1.9325,-1.934,-1.9339,-1.9351,-1.9349,-1.9372,-1.9367,-1.9367,-1.9367,-1.9367,0,-1.8742,-1.8777,-1.8837,-1.8865,-1.8905,-1.8947,-1.8986,-1.9017,-1.9059,-1.9094,-1.9124,-1.9156,-1.9204,-1.9241,-1.9271,-1.9315,-1.9327,-1.9344,-1.9351,-1.9341,-1.9339,-1.9357,-1.9356,-1.9368,-1.9367,-1.9367,-1.9367,0,-1.8738,-1.878,-1.8832,-1.8892,-1.8908,-1.8935,-1.8987,-1.9015,-1.9048,-1.9091,-1.9103,-1.9154,-1.92,-1.9241,-1.9302,-1.9321,-1.9366,-1.9376,-1.935,-1.9354,-1.9366,-1.9364,-1.9401,-1.9408,-1.9398,-1.9398,-1.9398,0,-1.8749,-1.8778,-1.8841,-1.8867,-1.8895,-1.8936,-1.8965,-1.9007,-1.9036,-1.9093,-1.9114,-1.9162,-1.9203,-1.9275,-1.9317,-1.9363,-1.9374,-1.9384,-1.9381,-1.937,-1.9373,-1.9371,-1.9374,-1.9383,-1.9383,-1.9383,-1.9383,0,-1.8764,-1.8783,-1.8825,-1.8873,-1.8907,-1.8947,-1.8988,-1.9007,-1.9056,-1.9088,-1.9135,-1.9167,-1.9229,-1.9276,-1.9327,-1.9358,-1.9378,-1.9383,-1.9389,-1.9379,-1.9362,-1.9371,-1.9349,-1.9382,-1.9382,-1.9382,-1.9382,-1.9382,-1.8769,-1.8795,-1.8844,-1.8888,-1.8924,-1.8961,-1.8991,-1.9027,-1.9067,-1.9121,-1.9143,-1.9191,-1.9238,-1.9309,-1.9339,-1.9377,-1.9381,-1.939,-1.9392,-1.9393,-1.9391,-1.9357,-1.9387,-1.9387,-1.9387,-1.9387,-1.9387,0,-1.8785,-1.8817,-1.8858,-1.8915,-1.895,-1.8967,-1.9013,-1.9041,-1.9083,-1.9125,-1.9165,-1.9219,-1.9265,-1.9311,-1.936,-1.9381,-1.9392,-1.9393,-1.9391,-1.9398,-1.9385,-1.9375,-1.9383,-1.9383,-1.9383,-1.9383,-1.9383,-1.9383,-1.8797,-1.8842,-1.8867,-1.893,-1.8963,-1.9011,-1.9035,-1.907,-1.9104,-1.9163,-1.9202,-1.9232,-1.9275,-1.9327,-1.937,-1.9382,-1.9399,-1.9396,-1.9411,-1.9399,-1.9398,-1.9398,-1.9389,-1.94,-1.94,-1.9421,-1.9421,-1.9421]},{"header":{"parameterUnit":"m.s-1","parameterCategory":1,"la1":30.2991,"la2":30.254,"lo1":-89.0895,"lo2":-89.0444,"dy":0.0017,"dx":0.0017,"nx":28,"ny":28,"refTime":"2025-03-30T03:00:00:Z","depth":0,"parameterNumber":3,"parameterNumberName":"V-component_of_WINDS"},"data":[0,0,0,0,0,0,0,0,0,0,0,0,0,0,0,0,0,0,0,0,0,0,0,0,0,0,0,0,0,0,0,0,0,0,0,0,0,0,0,0,0,0,0,0,0,0,0,0,0,0,0,0,0,0,0,0,0,0,3.969,3.9691,0,3.9779,3.978,3.9781,3.9796,3.9796,3.9795,3.9794,3.9884,3.9887,3.989,0,0,0,0,0,0,0,0,0,0,0,0,0,3.9532,3.9535,3.969,3.9691,3.9692,3.9779,3.978,3.9782,3.9797,3.9796,3.9795,3.9794,3.9883,3.9887,3.989,0,0,0,0,0,0,0,0,0,0,0,0,0,3.9609,3.9536,3.9689,3.971,3.9713,3.9779,3.978,3.9782,3.9797,3.9796,3.9794,3.9793,3.9882,3.9886,3.9891,3.9942,0,0,3.9905,3.9907,0,0,0,0,0,0,0,0,3.9604,3.9615,3.9706,3.9709,3.9712,3.9776,3.9758,3.9836,3.9797,3.9765,3.9794,3.9793,3.9849,3.9856,3.9875,3.9946,3.995,3.9905,3.9908,3.991,3.9912,0,0,0,0,0,0,0,3.9599,3.9611,3.9725,3.9707,3.9711,3.9715,3.9724,3.9773,3.9812,3.9767,3.9769,3.9779,3.985,3.9871,3.9877,3.9952,3.9905,3.9909,3.9912,3.9914,4.0073,4.0074,0,0,0,0,0,0,3.959,3.9606,3.9722,3.9728,3.9654,3.9719,3.9729,3.9756,3.9811,3.9819,3.978,3.978,3.9863,3.9872,3.9881,3.9947,3.991,3.9915,3.9917,4.0072,4.0073,4.0075,0,0,0,0,0,0,3.9587,3.96,3.9719,3.9667,3.9683,3.9723,3.9752,3.9759,3.9779,3.9821,3.9828,3.9794,3.9863,3.9874,3.9928,3.995,3.9917,3.9921,4.007,4.0072,4.0074,4.0078,0,0,0,0,0,0,3.9582,3.9599,3.9619,3.9668,3.9685,3.9764,3.9754,3.9761,3.9787,3.9788,3.9836,3.9843,3.9863,3.9921,3.9932,3.9956,3.9924,4.0068,4.0071,4.0073,4.0076,4.008,4.0083,0,0,0,0,0,3.9576,3.9615,3.962,3.9633,3.9711,3.9765,3.9775,3.9798,3.9789,3.981,3.9837,3.9841,3.9946,3.9926,3.9939,3.9964,4.0067,4.007,4.0073,4.0074,4.0079,4.0083,0,0,0,0,0,0,3.9566,3.9622,3.9627,3.9683,3.9719,3.9768,3.9794,3.9802,3.9841,3.9839,3.9865,3.9876,3.9929,3.9952,3.9929,4.0019,4.0006,4.0012,4.0002,4.0007,4.001,4.0004,3.9928,0,0,0,0,0,3.957,3.961,3.9656,3.9701,3.9719,3.9754,3.9778,3.9793,3.9831,3.9846,3.9878,3.9914,3.9956,3.9982,4.0023,4.0079,4.0091,4.0103,4.0107,4.011,4.0115,4.0149,4.0156,4.0085,4.0085,4.0085,0,0,3.9579,3.9615,3.9638,3.97,3.973,3.9771,3.9766,3.9809,3.984,3.9853,3.9906,3.993,3.9973,4.003,4.0056,4.005,4.0137,4.0114,4.0116,4.012,4.0153,4.016,4.0166,4.0088,4.0087,4.0087,0,0,3.9617,3.9647,3.9689,3.972,3.9766,3.9789,3.9799,3.9847,3.9864,3.9919,3.993,3.9967,4.0037,4.0068,4.0093,4.0146,4.0153,4.0159,4.0178,4.0211,4.0217,4.0222,4.0243,4.025,4.0163,4.0163,4.0163,0,3.9622,3.9685,3.9709,3.9753,3.9781,3.9796,3.9839,3.9868,3.9924,3.9943,3.9936,4.0027,4.0057,4.0122,4.0135,4.0154,4.0168,4.0153,4.0214,4.0219,4.0224,4.0245,4.0252,4.0164,4.0164,4.0164,4.0164,0,3.969,3.9733,3.9762,3.9818,3.9849,3.9892,3.9924,3.9952,3.9965,3.9989,4.0045,4.0082,4.0131,4.0148,4.0159,4.0215,4.0211,4.0209,4.0196,4.0231,4.0251,4.0259,4.0165,4.0165,4.0164,4.0164,0,0,3.9722,3.9794,3.9804,3.9831,3.9884,3.9918,3.9963,4.0013,4.0037,4.0076,4.0115,4.0176,4.0175,4.0204,4.022,4.0249,4.0291,4.0243,4.0245,4.0252,4.0358,4.036,4.0368,4.0296,4.0297,4.0298,4.0355,0,3.9768,3.9848,3.9873,3.9941,3.9983,3.9999,4.0038,4.0076,4.01,4.0139,4.0165,4.0209,4.0203,4.0221,4.0251,4.028,4.0313,4.0276,4.0333,4.0335,4.0323,4.0378,4.038,4.0432,4.0362,4.0364,4.0365,0,3.9831,3.9874,3.9946,3.9997,4.0015,4.005,4.0099,4.0136,4.0179,4.0195,4.0229,4.0243,4.0291,4.0276,4.0343,4.0318,4.0343,4.0361,4.0363,4.037,4.0352,4.0388,4.0448,4.0456,4.0376,4.0375,4.0375,0,3.985,3.9925,3.9979,4.0001,4.0061,4.0086,4.0112,4.0154,4.0183,4.0226,4.0246,4.0293,4.0319,4.0355,4.0382,4.0368,4.0449,4.0435,4.0464,4.0464,4.0481,4.0479,4.0547,4.0495,4.0494,4.0494,4.0494,0,3.9899,3.9943,3.9988,4.0022,4.0072,4.0101,4.015,4.0177,4.0215,4.0255,4.0271,4.0307,4.034,4.0381,4.0403,4.0457,4.0468,4.0483,4.0488,4.0482,4.0481,4.0499,4.0497,4.0496,4.0496,4.0495,4.0495,0,3.9928,3.996,4.0021,4.0074,4.0088,4.0123,4.0169,4.0202,4.0228,4.0278,4.0291,4.0331,4.0381,4.0412,4.0474,4.0488,4.0549,4.0552,4.0535,4.0537,4.0566,4.0563,4.0649,4.0662,4.0599,4.06,4.06,0,3.9958,3.9993,4.005,4.0078,4.0105,4.015,4.0181,4.021,4.0242,4.0296,4.0323,4.0374,4.0416,4.0495,4.053,4.0579,4.0584,4.0611,4.0591,4.0585,4.0587,4.0585,4.059,4.0614,4.0615,4.0615,4.0615,0,4.0008,4.0023,4.0066,4.0117,4.0153,4.0194,4.0234,4.0256,4.0294,4.0328,4.038,4.0413,4.0479,4.053,4.0582,4.0609,4.0619,4.0622,4.0631,4.0626,4.0615,4.0624,4.0545,4.0619,4.0619,4.0619,4.0618,4.0618,4.0039,4.0072,4.0119,4.0168,4.0202,4.024,4.0275,4.0306,4.035,4.0407,4.0422,4.0477,4.0522,4.0593,4.0622,4.0665,4.0661,4.0675,4.0679,4.0682,4.0684,4.0608,4.0675,4.0674,4.0674,4.0674,4.0674,0,4.0092,4.0123,4.0168,4.0226,4.0265,4.0272,4.0318,4.035,4.0399,4.044,4.0483,4.0543,4.0594,4.0634,4.0686,4.0713,4.0719,4.0726,4.0725,4.0731,4.0683,4.067,4.072,4.072,4.072,4.072,4.072,4.072,4.0124,4.0181,4.0201,4.0276,4.0307,4.0362,4.0388,4.0424,4.0458,4.0525,4.0568,4.0594,4.0636,4.0691,4.0738,4.0749,4.0768,4.0774,4.0785,4.0739,4.0734,4.073,4.0718,4.0777,4.0777,4.0831,4.0831,4.0832]}]]